When you browse on this site, cookies collect data to enhance your experience and personalize the content and advertising you see.
Visit our Privacy Policy to learn more. By continuing to use the site, you agree to this use of cookies and data.
  • In Österreich
  • Länderverzeichnis
  • Für 7 Tage
  • Wassertemperatur
  • Satellitenkarten
  • Wetterkarte
  • News
  • Widgets
  • user-avatar
    Anmelden

    Stündliche Wetter Fier

    Heute, 23 Januar, Mittwoch

    Zeit Temperatur Niederschläge Wind Luftdruck Luftfeuchtigkeit
    00:00 +8°C° 0.6 mm 4 m/S 752 mmHg 87%
    01:00 +8°C° 0 mm 4 m/S 752 mmHg 87%
    02:00 +9°C° 0.8 mm 3 m/S 752 mmHg 86%
    03:00 +9°C° 0.8 mm 3 m/S 751 mmHg 86%
    04:00 +9°C° 0.8 mm 3 m/S 751 mmHg 85%
    05:00 +9°C° 0.6 mm 3 m/S 751 mmHg 85%
    06:00 +9°C° 0.6 mm 3 m/S 751 mmHg 85%
    07:00 +9°C° 0.6 mm 3 m/S 750 mmHg 84%
    08:00 +9°C° 0.5 mm 3 m/S 750 mmHg 82%
    09:00 +10°C° 0.5 mm 3 m/S 750 mmHg 80%
    10:00 +10°C° 0.5 mm 3 m/S 750 mmHg 78%
    11:00 +10°C° 0.5 mm 3 m/S 749 mmHg 78%
    12:00 +12°C° 0.5 mm 2 m/S 748 mmHg 77%
    13:00 +12°C° 0.5 mm 2 m/S 748 mmHg 76%
    14:00 +10°C° 0.8 mm 2 m/S 747 mmHg 80%
    15:00 +9°C° 0.8 mm 2 m/S 746 mmHg 84%
    16:00 +9°C° 0.8 mm 2 m/S 746 mmHg 88%
    17:00 +9°C° 0.2 mm 1 m/S 745 mmHg 88%
    18:00 +9°C° 0.2 mm 1 m/S 745 mmHg 88%
    19:00 +9°C° 0.2 mm 1 m/S 745 mmHg 88%
    20:00 +9°C° 0.3 mm 1 m/S 744 mmHg 89%
    21:00 +9°C° 0.3 mm 1 m/S 744 mmHg 90%
    22:00 +8°C° 0.3 mm 1 m/S 744 mmHg 90%
    23:00 +8°C° 0.2 mm 1 m/S 744 mmHg 91%

    Morgen, 24 Januar, Donnerstag

    Zeit Temperatur Niederschläge Wind Luftdruck Luftfeuchtigkeit
    00:00 +8°C° 0.2 mm 1 m/S 743 mmHg 91%
    01:00 +7°C° 0.2 mm 2 m/S 743 mmHg 91%
    02:00 +7°C° 0.1 mm 2 m/S 743 mmHg 91%
    03:00 +7°C° 0.1 mm 2 m/S 743 mmHg 90%
    04:00 +7°C° 0.1 mm 2 m/S 743 mmHg 89%
    05:00 +7°C° 0.1 mm 2 m/S 743 mmHg 88%
    06:00 +7°C° 0.1 mm 2 m/S 743 mmHg 86%
    07:00 +7°C° 0.1 mm 2 m/S 743 mmHg 85%
    08:00 +8°C° 0 mm 2 m/S 743 mmHg 79%
    09:00 +9°C° 0 mm 2 m/S 744 mmHg 74%
    10:00 +10°C° 0 mm 3 m/S 744 mmHg 68%
    11:00 +11°C° 0 mm 3 m/S 744 mmHg 63%
    12:00 +13°C° 0 mm 2 m/S 744 mmHg 57%
    13:00 +14°C° 0 mm 2 m/S 744 mmHg 52%
    14:00 +13°C° 0 mm 2 m/S 743 mmHg 54%
    15:00 +13°C° 0 mm 2 m/S 743 mmHg 57%
    16:00 +13°C° 0 mm 2 m/S 743 mmHg 59%
    17:00 +11°C° 0 mm 3 m/S 743 mmHg 63%
    18:00 +8°C° 0 mm 4 m/S 743 mmHg 66%
    19:00 +7°C° 0 mm 5 m/S 743 mmHg 70%
    20:00 +7°C° 0 mm 5 m/S 742 mmHg 69%
    21:00 +7°C° 0 mm 5 m/S 742 mmHg 69%
    22:00 +7°C° 0 mm 5 m/S 741 mmHg 68%
    23:00 +7°C° 0.4 mm 4 m/S 741 mmHg 69%

    übermorgen, 25 Januar, Freitag

    Zeit Temperatur Niederschläge Wind Luftdruck Luftfeuchtigkeit
    00:00 +7°C° 0.4 mm 4 m/S 741 mmHg 71%
    01:00 +7°C° 0.4 mm 4 m/S 741 mmHg 72%
    02:00 +7°C° 0.5 mm 4 m/S 741 mmHg 74%
    03:00 +8°C° 0.5 mm 3 m/S 741 mmHg 76%
    04:00 +8°C° 0.5 mm 3 m/S 741 mmHg 78%
    05:00 +7°C° 0.1 mm 3 m/S 741 mmHg 78%
    06:00 +7°C° 0.1 mm 3 m/S 742 mmHg 78%
    07:00 +7°C° 0.1 mm 3 m/S 742 mmHg 78%
    08:00 +8°C° 0 mm 3 m/S 743 mmHg 74%
    09:00 +9°C° 0 mm 3 m/S 743 mmHg 71%
    10:00 +10°C° 0 mm 3 m/S 743 mmHg 67%
    11:00 +11°C° 0 mm 3 m/S 743 mmHg 62%
    12:00 +12°C° 0 mm 3 m/S 743 mmHg 57%
    13:00 +13°C° 0 mm 3 m/S 743 mmHg 52%
    14:00 +12°C° 0 mm 3 m/S 743 mmHg 55%
    15:00 +12°C° 0 mm 3 m/S 743 mmHg 59%
    16:00 +11°C° 0 mm 4 m/S 743 mmHg 62%
    17:00 +10°C° 0 mm 3 m/S 744 mmHg 66%
    18:00 +9°C° 0 mm 3 m/S 744 mmHg 69%
    19:00 +8°C° 0 mm 3 m/S 745 mmHg 72%
    20:00 +7°C° 0 mm 3 m/S 745 mmHg 72%
    21:00 +7°C° 0 mm 3 m/S 746 mmHg 72%
    22:00 +5°C° 0 mm 3 m/S 746 mmHg 72%
    23:00 +5°C° 0 mm 3 m/S 746 mmHg 72%

    26 Januar, Samstag

    Zeit Temperatur Niederschläge Wind Luftdruck Luftfeuchtigkeit
    00:00 +4°C° 0 mm 3 m/S 746 mmHg 72%
    01:00 +4°C° 0 mm 3 m/S 746 mmHg 72%
    02:00 +4°C° 0 mm 3 m/S 747 mmHg 71%
    03:00 +3°C° 0 mm 3 m/S 747 mmHg 71%
    04:00 +4°C° 0 mm 2 m/S 747 mmHg 71%
    05:00 +4°C° 0 mm 2 m/S 747 mmHg 71%
    06:00 +3°C° 0 mm 2 m/S 747 mmHg 70%
    07:00 +3°C° 0 mm 2 m/S 748 mmHg 70%
    08:00 +5°C° 0 mm 2 m/S 748 mmHg 64%
    09:00 +6°C° 0 mm 2 m/S 748 mmHg 59%
    10:00 +7°C° 0 mm 2 m/S 749 mmHg 54%
    11:00 +8°C° 0 mm 2 m/S 749 mmHg 52%
    12:00 +9°C° 0 mm 3 m/S 749 mmHg 50%
    13:00 +10°C° 0 mm 3 m/S 749 mmHg 49%
    14:00 +10°C° 0 mm 2 m/S 749 mmHg 52%
    15:00 +9°C° 0 mm 2 m/S 749 mmHg 55%
    16:00 +9°C° 0 mm 2 m/S 749 mmHg 58%
    17:00 +8°C° 0 mm 2 m/S 750 mmHg 61%
    18:00 +8°C° 0 mm 2 m/S 750 mmHg 63%
    19:00 +7°C° 0 mm 2 m/S 751 mmHg 66%
    20:00 +6°C° 0 mm 2 m/S 751 mmHg 67%
    21:00 +6°C° 0 mm 2 m/S 752 mmHg 69%
    22:00 +5°C° 0 mm 2 m/S 752 mmHg 70%
    23:00 +5°C° 0 mm 2 m/S 752 mmHg 70%

    27 Januar, Sonntag

    Zeit Temperatur Niederschläge Wind Luftdruck Luftfeuchtigkeit
    00:00 +4°C° 0 mm 2 m/S 752 mmHg 70%
    01:00 +4°C° 0 mm 2 m/S 752 mmHg 70%
    02:00 +4°C° 0 mm 2 m/S 752 mmHg 70%
    03:00 +3°C° 0 mm 2 m/S 752 mmHg 69%
    04:00 +4°C° 0 mm 1 m/S 752 mmHg 69%
    05:00 +4°C° 0 mm 1 m/S 752 mmHg 68%
    06:00 +4°C° 0 mm 1 m/S 752 mmHg 67%
    07:00 +4°C° 0 mm 1 m/S 752 mmHg 67%
    08:00 +5°C° 0 mm 1 m/S 752 mmHg 61%
    09:00 +7°C° 0 mm 1 m/S 752 mmHg 55%
    10:00 +9°C° 0 mm 1 m/S 752 mmHg 49%
    11:00 +9°C° 0 mm 1 m/S 752 mmHg 46%
    12:00 +10°C° 0 mm 1 m/S 751 mmHg 44%
    13:00 +11°C° 0 mm 1 m/S 751 mmHg 41%
    14:00 +11°C° 0 mm 1 m/S 751 mmHg 45%
    15:00 +11°C° 0 mm 1 m/S 751 mmHg 50%
    16:00 +10°C° 0 mm 1 m/S 751 mmHg 54%
    17:00 +9°C° 0 mm 1 m/S 751 mmHg 57%
    18:00 +7°C° 0 mm 2 m/S 752 mmHg 60%
    19:00 +7°C° 0 mm 2 m/S 752 mmHg 63%
    20:00 +6°C° 0 mm 2 m/S 752 mmHg 65%
    21:00 +5°C° 0 mm 3 m/S 752 mmHg 67%
    22:00 +5°C° 0 mm 4 m/S 752 mmHg 68%
    23:00 +5°C° 0 mm 4 m/S 752 mmHg 69%

    28 Januar, Montag

    Zeit Temperatur Niederschläge Wind Luftdruck Luftfeuchtigkeit
    00:00 +5°C° 0 mm 4 m/S 752 mmHg 70%
    01:00 +3°C° 0 mm 5 m/S 751 mmHg 71%
    02:00 +3°C° 0 mm 5 m/S 751 mmHg 72%
    03:00 +3°C° 0 mm 5 m/S 750 mmHg 73%
    04:00 +3°C° 0 mm 5 m/S 750 mmHg 73%
    05:00 +4°C° 0.3 mm 6 m/S 750 mmHg 74%
    06:00 +4°C° 0.3 mm 6 m/S 750 mmHg 74%
    07:00 +4°C° 0.3 mm 6 m/S 750 mmHg 75%
    08:00 +5°C° 0.2 mm 6 m/S 749 mmHg 71%
    09:00 +8°C° 0.2 mm 6 m/S 749 mmHg 67%
    10:00 +9°C° 0.2 mm 6 m/S 749 mmHg 64%
    11:00 +10°C° 0.2 mm 6 m/S 748 mmHg 62%
    12:00 +11°C° 0.2 mm 6 m/S 748 mmHg 61%
    13:00 +11°C° 0.2 mm 6 m/S 747 mmHg 60%
    14:00 +10°C° 1.9 mm 6 m/S 747 mmHg 68%
    15:00 +9°C° 1.9 mm 5 m/S 747 mmHg 75%
    16:00 +8°C° 1.9 mm 5 m/S 747 mmHg 83%
    17:00 +8°C° 2.3 mm 4 m/S 747 mmHg 86%
    18:00 +8°C° 2.3 mm 3 m/S 748 mmHg 89%
    19:00 +8°C° 2.3 mm 2 m/S 748 mmHg 92%
    20:00 +7°C° 2.7 mm 2 m/S 748 mmHg 93%
    21:00 +7°C° 2.7 mm 2 m/S 748 mmHg 94%
    22:00 +7°C° 2.7 mm 2 m/S 749 mmHg 95%
    23:00 +7°C° 0.7 mm 3 m/S 749 mmHg 93%
    Mehr zeigen